Hourly Data Report for January 17, 2013

WINNIPEG INTL A
MANITOBA

49°54'36.000" N
97°14'24.000" W
238.70 m
5023227
YWG

Download Data

Hourly Data (January 2013)
Hourly Data Report for January 17, 2013
TIME
LST
Temp Definition
°C
Dew Point Definition
°C
Rel Hum Definition
%
Precip. Amount Definition
mm

Wind Dir Definition
10's deg

Wind Spd Definition
km/h
Visibility Definition
km
Stn Press Definition
kPa
Hmdx Definition


Wind Chill Definition


Weather Definition


00:00 -21.7 -27.0 63   20 9 24.1 99.62   -29 Cloudy
01:00 -21.5 -25.9 68   20 13 24.1 99.66   -30 Snow
02:00 -21.3 -24.9 73   18 10 8.1 99.65   -29 Snow
03:00 -21.0 -24.2 76   19 10 8.1 99.67   -28 Snow
04:00 -20.8 -23.8 77   17 9 6.4 99.67   -28 Snow
05:00 -20.6 -23.5 78   36 5 8.1 99.74   -25 Snow
06:00 -21.0 -23.6 80     0 19.3 99.71     Snow
07:00 -22.6 -24.6 84   28 5 24.1 99.75   -27 LegendNANA
08:00 -22.8 -24.9 83   26 9 24.1 99.85   -30 LegendNANA
09:00 -22.9 -24.9 84   26 10 16.1 99.95   -31 Ice Crystals
10:00 -25.5 -27.7 82   30 10 16.1 100.05   -34 Ice Crystals
11:00 -24.5 -27.2 79   28 13 19.3 100.07   -34 Ice Crystals
12:00 -22.9 -25.9 77   31 5 24.1 100.05   -28 Mainly Clear
13:00 -20.9 -24.9 71   28 8 24.1 100.03   -27 LegendNANA
14:00 -21.1 -25.1 71   27 7 24.1 99.99   -27 LegendNANA
15:00 -20.4 -25.4 65   26 9 24.1 99.96   -27 Mainly Clear
16:00 -20.8 -25.9 64   27 5 24.1 99.90   -25 LegendNANA
17:00 -21.8 -26.1 69   22 5 24.1 99.90   -26 LegendNANA
18:00 -21.5 -25.3 72   20 14 24.1 99.84   -31 Mainly Clear
19:00 -22.9 -26.0 76   18 14 24.1 99.77   -32 LegendNANA
20:00 -21.5 -25.0 74   17 16 24.1 99.67   -31 LegendNANA
21:00 -20.7 -24.7 71   18 13 24.1 99.56   -29 Mostly Cloudy
22:00 -19.7 -24.2 68   16 15 24.1 99.43   -29 LegendNANA
23:00 -18.8 -23.3 68   15 17 24.1 99.28   -28 LegendNANA

Notes on Data Quality.

Legend

  • E = Estimated
  • M = Missing
  • NA = Not Available*
  • [empty] = Indicates an unobserved value
Date modified: